TimeEST,TemperatureF,Dew PointF,Humidity,Sea Level PressureIn,VisibilityMPH,Wind Direction,Wind SpeedMPH,Gust SpeedMPH,PrecipitationIn,Events,Conditions,WindDirDegrees,DateUTC
12:54 AM,30.9,19.9,64,30.05,10.0,SW,8.1,-,N/A,,Clear,220,2011-11-12 05:54:00
1:54 AM,30.9,19.9,64,30.06,10.0,SW,9.2,-,N/A,,Clear,230,2011-11-12 06:54:00
2:54 AM,32.0,19.9,61,30.04,10.0,SSW,9.2,-,N/A,,Scattered Clouds,210,2011-11-12 07:54:00
3:54 AM,30.0,19.9,66,30.02,10.0,South,9.2,-,N/A,,Clear,190,2011-11-12 08:54:00
4:54 AM,32.0,19.4,60,29.95,10.0,South,9.2,-,N/A,,Clear,190,2011-11-12 09:54:00
5:54 AM,34.0,19.9,56,30.01,10.0,SSW,12.7,18.4,N/A,,Clear,200,2011-11-12 10:54:00
6:54 AM,35.6,21.2,56,29.96,10.0,SSW,12.7,-,N/A,,Clear,200,2011-11-12 11:54:00
7:54 AM,37.0,23.0,57,30.03,10.0,SSW,12.7,-,N/A,,Clear,210,2011-11-12 12:54:00
8:54 AM,39.0,25.0,57,30.04,10.0,SSW,10.4,-,N/A,,Clear,210,2011-11-12 13:54:00
9:54 AM,45.0,28.0,52,30.04,10.0,West,17.3,24.2,N/A,,Clear,260,2011-11-12 14:54:00
10:54 AM,48.0,28.9,48,30.06,10.0,West,17.3,27.6,N/A,,Clear,260,2011-11-12 15:54:00
11:54 AM,50.0,28.9,44,30.06,10.0,West,18.4,24.2,N/A,,Clear,260,2011-11-12 16:54:00
12:54 PM,52.0,30.0,43,30.05,10.0,West,12.7,-,N/A,,Clear,260,2011-11-12 17:54:00
1:54 PM,53.1,30.0,41,30.05,10.0,WSW,13.8,21.9,N/A,,Clear,250,2011-11-12 18:54:00
2:54 PM,55.0,30.0,38,30.04,10.0,WSW,11.5,-,N/A,,Clear,240,2011-11-12 19:54:00
3:54 PM,53.1,28.0,38,30.06,10.0,WSW,9.2,-,N/A,,Clear,250,2011-11-12 20:54:00
4:54 PM,51.1,28.0,41,30.07,10.0,SW,10.4,-,N/A,,Clear,230,2011-11-12 21:54:00
5:54 PM,50.0,27.0,41,30.08,10.0,SSW,6.9,-,N/A,,Clear,210,2011-11-12 22:54:00
6:54 PM,48.9,26.1,41,30.09,10.0,SSW,6.9,-,N/A,,Clear,200,2011-11-12 23:54:00
7:54 PM,48.9,26.1,41,30.09,10.0,SSW,9.2,-,N/A,,Clear,200,2011-11-13 00:54:00
8:54 PM,48.2,26.6,43,30.05,10.0,SSW,9.2,-,N/A,,Clear,200,2011-11-13 01:54:00
9:54 PM,46.9,25.0,42,30.08,10.0,SSW,8.1,-,N/A,,Clear,200,2011-11-13 02:54:00
10:54 PM,46.9,24.1,41,30.07,10.0,SSW,8.1,-,N/A,,Clear,210,2011-11-13 03:54:00
11:54 PM,48.0,24.1,39,30.06,10.0,SSW,10.4,-,N/A,,Clear,210,2011-11-13 04:54:00